COSMOS 2251 DEB, 36632

Orbit data source: Space-Track

COSMOS 2251 DEB, 36632 is space debris in LEO originally from a launch on Wed, 16 Jun 1993 UTC launched from the Plesetsk Missile And Space Complex (PKMTR). The debris from Iridium 33, an American commercial communications satellite, has been tracked extensively since its accidental collision with the defunct Russian satellite Cosmos 2251 in 2009. This event, occurring at high speed in low Earth orbit (LEO), generated thousands of pieces of space debris, significantly increasing the risk of further collisions. The Iridium 33 debris cloud has impacted space traffic management and orbital debris mitigation strategies, making it a subject of ongoing study in space situational awareness.

Loading next visibility...
Identifier
36632, 1993-036BEW
Orbit
LEO
Country
Flag of CISCIS
Related business
Manufacturer
Unknown
Mission
Spacecraft
Bus & Motor
Unknown
Mass
Unknown
Launch date (UTC)
1993-06-16 (33 years ago)
Launch vehicle
Unknown
Launch site
Plesetsk Missile And Space Complex (PKMTR)
Object type
Payload
Rocket body
Debris
Shape & HBR
Unknown shape, 0.1 m
Radar Cross Section
Small (<0.1 m²)

Expand to show TLE details & history
Last TLE update: 5 days ago

TLE from 5 days ago
0 COSMOS 2251 DEB
1 36632U 93036BEW 26204.78669067  .00001118  00000-0  33162-3 0  9993
2 36632  73.9992 236.8405 0035965 294.2057  65.5343 14.44149585684342
Epoch: 2026-07-23T18:52Z
TLE epoch observation values (Epoch: 2026-07-23T18:52:50.073Z)
Latitude
0.00001°
Longitude
12.10919°
Altitude
736.905 km
Speed
7.492 km/s
True Right ascension
15h 47m 21s
True Declination
0° 00' 00"
Sunlit
Object was in daylight at epoch
Visualization orbit readout
Latitude
Unknown
Longitude
Unknown
Altitude
Unknown
Speed
Unknown
Apparent Right ascension
Unknown
Apparent Declination
Unknown
Sunlit
N/A
Visualization observer readout
Local Sidereal Time
20:30:28
Azimuth
Unknown
Elevation
Unknown
Doppler factor
Unknown
Orbital elements
Apogee altitude
768.048 km
Perigee altitude
716.83 km
Semi-major axis
7,120.576 km
Eccentricity
0.0036
Inclination
73.9992°
RAAN
236.8405°
Arg. of periapsis
294.2057°
True anomaly
65.91012°
Mean anomaly
65.5343°
Eccentric anomaly
65.72214°
Mean motion
3.61219 °/min
Orbital period
99.66 mins
BSTAR
0.00033162
Loading maneuver chart data...
Computing Atmospheric mass density...

Documentation

Showing up to 5 results
|